AAL3 KJFK-KLAX

Flight info

Callsign AAL3
Flight time N/A
Altitude 40000
Route RBV Q430 AIR J80 MCI J24 SLN J102 ALS J44 RSK J64 TBC JASSE Q90 DNERO ANJLL4
Aircraft B772/H-SDE2E3FGHIJ5LORVWXY/LB1D1

Departure

Time 2026-05-09 17:30
Airport John F. Kennedy International Airport (KJFK)

Arrival

Time N/A
Airport Los Angeles International Airport (KLAX)
Time Latitude Longitude Altitude Speed Heading
2026-05-09 16:38 40.64869 -73.79457 28 ft 0 kts 331°
2026-05-09 16:39 40.64901 -73.78929 28 ft 0 kts 242°
2026-05-09 17:17 40.64893 -73.78826 26 ft 3 kts 332°
2026-05-09 17:18 40.64890 -73.78824 25 ft 0 kts 332°
2026-05-09 17:21 40.64898 -73.78829 26 ft 8 kts 336°
2026-05-09 17:21 40.64957 -73.78852 28 ft 9 kts 343°
2026-05-09 17:21 40.65013 -73.78882 28 ft 9 kts 327°
2026-05-09 17:21 40.65071 -73.78909 28 ft 9 kts 352°
2026-05-09 17:22 40.65126 -73.78889 28 ft 9 kts 53°
2026-05-09 17:22 40.65141 -73.78810 28 ft 9 kts 79°
2026-05-09 17:22 40.65157 -73.78733 28 ft 9 kts 64°
2026-05-09 17:22 40.65185 -73.78661 29 ft 9 kts 62°
2026-05-09 17:23 40.65215 -73.78590 32 ft 9 kts 61°
2026-05-09 17:23 40.65254 -73.78492 28 ft 13 kts 68°
2026-05-09 17:23 40.65258 -73.78373 29 ft 13 kts 109°
2026-05-09 17:23 40.65215 -73.78269 28 ft 13 kts 121°
2026-05-09 17:25 40.64910 -73.77599 26 ft 18 kts 121°
2026-05-09 17:25 40.64845 -73.77454 31 ft 18 kts 121°
2026-05-09 17:25 40.64781 -73.77314 28 ft 14 kts 121°
2026-05-09 17:25 40.64749 -73.77229 27 ft 10 kts 92°
2026-05-09 17:26 40.64782 -73.77153 27 ft 10 kts 54°
2026-05-09 17:26 40.64821 -73.77081 30 ft 10 kts 54°
2026-05-09 17:26 40.64874 -73.76982 29 ft 13 kts 55°
2026-05-09 17:26 40.64921 -73.76878 31 ft 13 kts 84°
2026-05-09 17:27 40.64881 -73.76769 31 ft 12 kts 120°
2026-05-09 17:27 40.64903 -73.76679 31 ft 12 kts 30°
2026-05-09 17:27 40.64976 -73.76621 31 ft 12 kts 32°
2026-05-09 17:27 40.65049 -73.76564 29 ft 12 kts 30°
2026-05-09 17:28 40.65093 -73.76523 27 ft 7 kts 53°
2026-05-09 17:28 40.65089 -73.76459 27 ft 7 kts 113°
2026-05-09 17:28 40.65064 -73.76401 27 ft 7 kts 123°
2026-05-09 17:28 40.65022 -73.76364 27 ft 8 kts 179°
2026-05-09 17:29 40.64962 -73.76404 27 ft 19 kts 212°
2026-05-09 17:29 40.64685 -73.76620 28 ft 81 kts 210°
2026-05-09 17:29 40.64009 -73.77147 29 ft 143 kts 211°
2026-05-09 17:29 40.63073 -73.77909 458 ft 161 kts 211°
2026-05-09 17:30 40.62116 -73.78695 1295 ft 166 kts 212°
2026-05-09 17:30 40.61105 -73.79527 2100 ft 174 kts 213°
2026-05-09 17:30 40.60081 -73.80366 2926 ft 177 kts 214°
2026-05-09 17:30 40.58990 -73.81273 3277 ft 200 kts 215°
2026-05-09 17:31 40.57704 -73.82344 3518 ft 228 kts 214°
2026-05-09 17:31 40.56352 -73.83464 4272 ft 236 kts 213°
2026-05-09 17:32 40.51367 -73.88938 7450 ft 244 kts 237°
2026-05-09 17:32 40.50466 -73.90844 8272 ft 246 kts 235°
2026-05-09 17:32 40.49543 -73.92737 9163 ft 247 kts 235°
2026-05-09 17:33 40.48599 -73.94645 9945 ft 251 kts 234°
2026-05-09 17:33 40.47620 -73.96597 10507 ft 264 kts 235°
2026-05-09 17:33 40.46548 -73.98712 10708 ft 292 kts 235°
2026-05-09 17:33 40.45367 -74.01028 10929 ft 318 kts 235°
2026-05-09 17:34 40.44112 -74.03478 11558 ft 330 kts 236°
2026-05-09 17:35 40.35092 -74.16826 16267 ft 361 kts 228°
2026-05-09 17:35 40.33318 -74.19187 17083 ft 367 kts 228°
2026-05-09 17:36 40.31505 -74.21586 17934 ft 373 kts 228°
2026-05-09 17:36 40.29660 -74.24013 18730 ft 378 kts 227°
2026-05-09 17:36 40.27792 -74.26466 19510 ft 383 kts 227°
2026-05-09 17:36 40.25903 -74.28950 20322 ft 387 kts 227°
2026-05-09 17:37 40.23992 -74.31467 21123 ft 392 kts 227°
2026-05-09 17:37 40.22064 -74.34011 21940 ft 396 kts 227°
2026-05-09 17:37 40.20123 -74.36588 22747 ft 400 kts 227°
2026-05-09 17:37 40.18168 -74.39201 23523 ft 402 kts 227°
2026-05-09 17:38 40.16212 -74.41829 24115 ft 405 kts 227°
2026-05-09 17:38 40.14245 -74.44480 24745 ft 407 kts 227°
2026-05-09 17:38 40.12268 -74.47146 25382 ft 409 kts 228°
2026-05-09 17:39 40.08289 -74.52502 26480 ft 413 kts 228°
2026-05-09 17:39 40.06280 -74.55195 26957 ft 415 kts 228°
2026-05-09 17:39 40.04253 -74.57901 27449 ft 418 kts 228°
2026-05-09 17:39 40.02285 -74.60607 27911 ft 418 kts 232°
2026-05-09 17:40 40.00586 -74.63687 28353 ft 419 kts 239°
2026-05-09 17:40 39.99112 -74.66970 28765 ft 420 kts 241°
2026-05-09 17:40 39.97714 -74.70327 29142 ft 422 kts 242°
2026-05-09 17:40 39.96339 -74.73717 29509 ft 424 kts 243°
2026-05-09 17:41 39.94967 -74.77127 29838 ft 426 kts 243°
2026-05-09 17:41 39.93593 -74.80552 30122 ft 427 kts 243°
2026-05-09 17:41 39.92221 -74.83982 30386 ft 428 kts 243°
2026-05-09 17:41 39.90841 -74.87421 30653 ft 428 kts 243°
2026-05-09 17:42 39.89444 -74.90844 30973 ft 427 kts 243°
2026-05-09 17:42 39.88032 -74.94236 31386 ft 425 kts 243°
2026-05-09 17:42 39.86616 -74.97590 31822 ft 421 kts 243°
2026-05-09 17:42 39.85192 -75.00912 32224 ft 419 kts 243°
2026-05-09 17:43 39.83761 -75.04204 32589 ft 417 kts 243°
2026-05-09 17:43 39.82319 -75.07469 32977 ft 415 kts 243°
2026-05-09 17:43 39.80861 -75.10694 33428 ft 412 kts 243°
2026-05-09 17:43 39.79394 -75.13871 33894 ft 408 kts 243°
2026-05-09 17:44 39.77925 -75.17015 34218 ft 406 kts 243°
2026-05-09 17:44 39.76446 -75.20153 34405 ft 408 kts 243°
2026-05-09 17:44 39.74956 -75.23303 34576 ft 410 kts 243°
2026-05-09 17:44 39.73459 -75.26455 34813 ft 410 kts 243°
2026-05-09 17:45 39.71985 -75.29606 35058 ft 404 kts 246°
2026-05-09 17:45 39.71115 -75.33027 35062 ft 401 kts 265°
2026-05-09 17:45 39.71240 -75.36642 35256 ft 402 kts 277°
2026-05-09 17:45 39.71832 -75.40198 35543 ft 404 kts 282°
2026-05-09 17:46 39.72725 -75.43669 35800 ft 406 kts 286°
2026-05-09 17:46 39.73729 -75.47095 36115 ft 405 kts 287°
2026-05-09 17:46 39.74762 -75.50503 36326 ft 406 kts 288°
2026-05-09 17:46 39.75800 -75.53920 36539 ft 407 kts 288°
2026-05-09 17:47 39.76833 -75.57347 36733 ft 407 kts 287°
2026-05-09 17:47 39.77857 -75.60782 36947 ft 408 kts 287°
2026-05-09 17:47 39.78874 -75.64223 37162 ft 408 kts 287°
2026-05-09 17:47 39.79883 -75.67663 37374 ft 408 kts 287°
2026-05-09 17:48 39.80893 -75.71117 37597 ft 409 kts 287°
2026-05-09 17:48 39.81900 -75.74573 37826 ft 409 kts 287°
2026-05-09 17:48 39.82907 -75.78032 38060 ft 409 kts 287°
2026-05-09 17:48 39.83912 -75.81492 38326 ft 408 kts 288°
2026-05-09 17:49 39.84914 -75.84944 38571 ft 407 kts 288°
2026-05-09 17:49 39.85915 -75.88398 38721 ft 408 kts 288°
2026-05-09 17:49 39.86918 -75.91861 38845 ft 409 kts 288°
2026-05-09 17:49 39.87921 -75.95331 39002 ft 410 kts 288°
2026-05-09 17:50 39.88924 -75.98804 39151 ft 410 kts 288°
2026-05-09 17:50 39.90925 -76.05748 39414 ft 410 kts 288°
2026-05-09 17:50 39.91927 -76.09233 39534 ft 411 kts 287°
2026-05-09 17:51 39.92929 -76.12720 39667 ft 411 kts 287°
2026-05-09 17:51 39.93930 -76.16209 39798 ft 411 kts 287°
2026-05-09 17:51 39.95924 -76.23176 39910 ft 414 kts 287°
2026-05-09 17:52 39.97933 -76.30215 39945 ft 414 kts 287°
2026-05-09 17:52 39.99936 -76.37243 39947 ft 413 kts 287°
2026-05-09 17:53 40.01772 -76.44312 39945 ft 409 kts 280°
2026-05-09 17:53 40.02455 -76.51630 39959 ft 406 kts 272°
2026-05-09 17:54 40.02167 -76.58979 39953 ft 407 kts 264°
2026-05-09 17:54 40.01425 -76.66303 39946 ft 407 kts 264°
2026-05-09 17:55 40.00684 -76.73631 39941 ft 408 kts 264°
2026-05-09 17:55 39.99961 -76.80964 39948 ft 408 kts 264°
2026-05-09 17:56 39.99244 -76.88295 39952 ft 408 kts 264°
2026-05-09 17:57 39.98159 -76.99310 39944 ft 408 kts 264°
2026-05-09 17:57 39.97431 -77.06642 39944 ft 408 kts 264°
2026-05-09 17:58 39.96699 -77.13972 39941 ft 408 kts 264°
2026-05-09 17:58 39.95962 -77.21298 39944 ft 407 kts 264°
2026-05-09 17:59 39.95280 -77.28575 39939 ft 406 kts 267°
2026-05-09 17:59 39.95283 -77.35929 39948 ft 405 kts 273°
2026-05-09 18:00 39.95547 -77.43261 39938 ft 405 kts 272°
2026-05-09 18:00 39.95778 -77.50588 39940 ft 405 kts 272°
2026-05-09 18:01 39.96004 -77.57919 39937 ft 405 kts 272°
2026-05-09 18:01 39.96226 -77.65249 39933 ft 405 kts 272°
2026-05-09 18:02 39.96444 -77.72574 39924 ft 404 kts 272°
2026-05-09 18:02 39.96657 -77.79889 39925 ft 404 kts 272°
2026-05-09 18:03 39.96866 -77.87191 39934 ft 402 kts 272°
2026-05-09 18:03 39.97069 -77.94484 39928 ft 402 kts 272°
2026-05-09 18:04 39.97270 -78.01772 39927 ft 402 kts 272°
2026-05-09 18:04 39.97470 -78.09058 39922 ft 403 kts 272°
2026-05-09 18:05 39.97666 -78.16365 39904 ft 405 kts 272°
2026-05-09 18:05 39.97858 -78.23711 39903 ft 406 kts 272°
2026-05-09 18:06 39.98044 -78.31054 39903 ft 405 kts 272°
2026-05-09 18:06 39.98226 -78.38380 39908 ft 404 kts 272°
2026-05-09 18:07 39.98403 -78.45692 39909 ft 403 kts 272°
2026-05-09 18:07 39.98576 -78.52998 39908 ft 403 kts 272°
2026-05-09 18:08 39.98744 -78.60298 39905 ft 403 kts 272°
2026-05-09 18:08 39.98907 -78.67587 39907 ft 403 kts 271°
2026-05-09 18:09 39.99065 -78.74886 39902 ft 403 kts 272°
2026-05-09 18:09 39.99219 -78.82192 39900 ft 403 kts 272°
2026-05-09 18:10 39.99368 -78.89500 39899 ft 403 kts 271°
2026-05-09 18:10 39.99513 -78.96813 39902 ft 403 kts 271°
2026-05-09 18:11 39.99653 -79.04074 39901 ft 403 kts 271°
2026-05-09 18:11 39.99788 -79.11395 39899 ft 404 kts 271°
2026-05-09 18:12 39.99920 -79.18717 39890 ft 404 kts 271°
2026-05-09 18:12 40.00047 -79.26048 39897 ft 404 kts 271°
2026-05-09 18:13 40.00170 -79.33375 39901 ft 404 kts 271°
2026-05-09 18:13 40.00288 -79.40709 39903 ft 405 kts 271°
2026-05-09 18:14 40.00402 -79.48061 39905 ft 406 kts 271°
2026-05-09 18:14 40.00512 -79.55420 39908 ft 406 kts 271°
2026-05-09 18:15 40.00619 -79.62764 39901 ft 405 kts 272°
2026-05-09 18:15 40.00721 -79.70098 39889 ft 404 kts 271°
2026-05-09 18:16 40.00818 -79.77415 39891 ft 403 kts 271°
2026-05-09 18:16 40.00910 -79.84725 39897 ft 403 kts 271°
2026-05-09 18:17 40.00998 -79.92032 39882 ft 402 kts 271°
2026-05-09 18:17 40.01080 -79.99324 39891 ft 402 kts 271°
2026-05-09 18:18 40.01159 -80.06605 39895 ft 401 kts 271°
2026-05-09 18:18 40.01232 -80.13884 39891 ft 401 kts 271°
2026-05-09 18:19 40.01301 -80.21152 39892 ft 401 kts 271°
2026-05-09 18:19 40.01396 -80.32061 39893 ft 401 kts 271°
2026-05-09 18:20 40.01454 -80.39331 39889 ft 401 kts 271°
2026-05-09 18:20 40.01507 -80.46604 39892 ft 401 kts 271°
2026-05-09 18:21 40.01555 -80.53828 39884 ft 401 kts 271°
2026-05-09 18:21 40.01592 -80.59915 39893 ft 401 kts 271°
2026-05-09 18:22 40.01633 -80.67188 39888 ft 401 kts 271°
2026-05-09 18:22 40.01675 -80.75641 39889 ft 401 kts 271°
2026-05-09 18:23 40.01700 -80.81737 39888 ft 401 kts 271°
2026-05-09 18:23 40.01632 -80.88997 39883 ft 400 kts 270°
2026-05-09 18:24 40.01513 -80.96248 39882 ft 399 kts 270°
2026-05-09 18:25 40.01348 -81.07051 39884 ft 399 kts 270°
2026-05-09 18:25 40.01240 -81.14278 39883 ft 398 kts 270°
2026-05-09 18:26 40.01126 -81.21508 39882 ft 399 kts 270°
2026-05-09 18:26 40.00997 -81.28739 39869 ft 399 kts 270°
2026-05-09 18:27 40.00854 -81.35961 39874 ft 398 kts 270°
2026-05-09 18:27 40.00709 -81.43173 39872 ft 398 kts 270°
2026-05-09 18:28 40.00562 -81.50374 39875 ft 397 kts 270°
2026-05-09 18:28 40.00412 -81.57577 39889 ft 397 kts 270°
2026-05-09 18:29 40.00266 -81.64779 39888 ft 397 kts 270°
2026-05-09 18:29 40.00117 -81.71976 39884 ft 397 kts 270°
2026-05-09 18:30 39.99963 -81.79174 39885 ft 397 kts 270°
2026-05-09 18:30 39.99803 -81.86378 39888 ft 397 kts 270°
2026-05-09 18:31 39.99640 -81.93574 39891 ft 398 kts 270°
2026-05-09 18:31 39.99472 -82.00784 39884 ft 398 kts 270°
2026-05-09 18:32 39.99300 -82.07994 39880 ft 398 kts 270°
2026-05-09 18:32 39.99122 -82.15209 39887 ft 398 kts 270°
2026-05-09 18:33 39.98940 -82.22409 39856 ft 397 kts 270°
2026-05-09 18:33 39.98754 -82.29603 39863 ft 397 kts 270°
2026-05-09 18:34 39.98566 -82.36747 39877 ft 397 kts 270°
2026-05-09 18:34 39.98371 -82.43949 39867 ft 397 kts 270°
2026-05-09 18:35 39.98171 -82.51152 39868 ft 398 kts 270°
2026-05-09 18:35 39.97968 -82.58357 39870 ft 398 kts 270°
2026-05-09 18:36 39.97759 -82.65565 39865 ft 398 kts 269°
2026-05-09 18:36 39.97546 -82.72772 39868 ft 398 kts 269°
2026-05-09 18:37 39.97329 -82.79983 39860 ft 398 kts 270°
2026-05-09 18:37 39.97107 -82.87200 39866 ft 398 kts 269°
2026-05-09 18:38 39.96881 -82.94412 39867 ft 398 kts 269°
2026-05-09 18:38 39.96651 -83.01621 39874 ft 398 kts 269°
2026-05-09 18:40 39.95925 -83.30497 39873 ft 399 kts 269°
2026-05-09 18:41 39.95668 -83.37716 39869 ft 399 kts 269°
2026-05-09 18:41 39.95414 -83.44929 39873 ft 399 kts 269°
2026-05-09 18:42 39.95159 -83.52155 39871 ft 399 kts 269°
2026-05-09 18:42 39.94900 -83.59381 39867 ft 399 kts 269°
2026-05-09 18:43 39.94638 -83.66606 39869 ft 400 kts 269°
2026-05-09 18:43 39.94369 -83.73846 39859 ft 400 kts 269°
2026-05-09 18:44 39.94096 -83.81092 39849 ft 400 kts 269°
2026-05-09 18:44 39.93819 -83.88339 39849 ft 401 kts 269°
2026-05-09 18:45 39.93539 -83.95538 39846 ft 401 kts 269°
2026-05-09 18:45 39.93253 -84.02791 39855 ft 401 kts 269°
2026-05-09 18:46 39.92961 -84.10047 39862 ft 401 kts 269°
2026-05-09 18:46 39.92665 -84.17316 39864 ft 402 kts 269°
2026-05-09 18:47 39.92365 -84.24581 39862 ft 402 kts 269°
2026-05-09 18:47 39.92060 -84.31854 39848 ft 402 kts 269°
2026-05-09 18:48 39.91750 -84.39124 39842 ft 402 kts 269°
2026-05-09 18:48 39.91436 -84.46392 39847 ft 402 kts 269°
2026-05-09 18:49 39.91119 -84.53660 39847 ft 402 kts 269°
2026-05-09 18:49 39.90798 -84.60922 39850 ft 402 kts 269°
2026-05-09 18:50 39.90468 -84.68186 39845 ft 401 kts 269°
2026-05-09 18:50 39.90132 -84.75432 39860 ft 401 kts 269°
2026-05-09 18:51 39.89791 -84.82682 39862 ft 401 kts 269°
2026-05-09 18:51 39.89446 -84.89944 39866 ft 401 kts 269°
2026-05-09 18:52 39.89098 -84.97199 39861 ft 402 kts 269°
2026-05-09 18:52 39.88744 -85.04456 39856 ft 402 kts 269°
2026-05-09 18:53 39.88389 -85.11662 39842 ft 402 kts 269°
2026-05-09 18:53 39.88026 -85.18920 39839 ft 402 kts 268°
2026-05-09 18:54 39.87659 -85.26175 39832 ft 402 kts 268°
2026-05-09 18:54 39.87287 -85.33433 39850 ft 402 kts 268°
2026-05-09 18:55 39.86911 -85.40694 39850 ft 402 kts 268°
2026-05-09 18:55 39.86531 -85.47938 39839 ft 402 kts 268°
2026-05-09 18:56 39.86146 -85.55190 39843 ft 401 kts 268°
2026-05-09 18:56 39.85756 -85.62444 39845 ft 402 kts 268°
2026-05-09 18:57 39.85362 -85.69688 39847 ft 402 kts 268°
2026-05-09 18:57 39.84964 -85.76941 39852 ft 402 kts 268°
2026-05-09 18:58 39.84560 -85.84193 39852 ft 402 kts 268°
2026-05-09 18:58 39.84152 -85.91446 39852 ft 402 kts 268°
2026-05-09 18:59 39.83740 -85.98696 39853 ft 402 kts 268°
2026-05-09 18:59 39.83323 -86.05946 39853 ft 402 kts 268°
2026-05-09 19:00 39.82903 -86.13183 39848 ft 402 kts 268°
2026-05-09 19:00 39.82263 -86.24052 39837 ft 401 kts 268°
2026-05-09 19:01 39.81832 -86.31292 39848 ft 401 kts 268°
2026-05-09 19:01 39.81510 -86.38482 39845 ft 400 kts 272°
2026-05-09 19:02 39.81675 -86.45714 39840 ft 400 kts 272°
2026-05-09 19:02 39.81836 -86.52949 39849 ft 400 kts 272°
2026-05-09 19:03 39.81986 -86.60189 39851 ft 401 kts 272°
2026-05-09 19:03 39.82128 -86.67429 39858 ft 401 kts 272°
2026-05-09 19:04 39.82265 -86.74682 39855 ft 401 kts 272°
2026-05-09 19:04 39.82398 -86.81938 39849 ft 401 kts 272°
2026-05-09 19:05 39.82505 -86.87964 39846 ft 401 kts 272°
2026-05-09 19:05 39.82651 -86.96457 39826 ft 401 kts 272°
2026-05-09 19:06 39.82770 -87.03711 39851 ft 401 kts 272°
2026-05-09 19:06 39.82885 -87.10963 39849 ft 401 kts 272°
2026-05-09 19:07 39.82995 -87.18227 39849 ft 402 kts 272°
2026-05-09 19:07 39.83101 -87.25495 39839 ft 402 kts 272°
2026-05-09 19:08 39.83202 -87.32714 39847 ft 402 kts 272°
2026-05-09 19:08 39.83299 -87.39985 39841 ft 402 kts 272°
2026-05-09 19:09 39.83391 -87.47254 39851 ft 402 kts 272°
2026-05-09 19:09 39.83479 -87.54514 39854 ft 402 kts 272°
2026-05-09 19:10 39.83562 -87.61784 39857 ft 402 kts 272°
2026-05-09 19:10 39.83641 -87.69063 39857 ft 402 kts 271°
2026-05-09 19:11 39.83704 -87.75157 39855 ft 402 kts 271°
2026-05-09 19:11 39.83774 -87.82379 39855 ft 402 kts 271°
2026-05-09 19:12 39.83840 -87.89705 39849 ft 402 kts 271°
2026-05-09 19:12 39.83901 -87.96932 39846 ft 402 kts 271°
2026-05-09 19:13 39.83959 -88.04209 39841 ft 402 kts 271°
2026-05-09 19:13 39.84011 -88.11492 39823 ft 403 kts 271°
2026-05-09 19:14 39.84060 -88.18777 39839 ft 403 kts 271°
2026-05-09 19:14 39.84104 -88.26067 39844 ft 403 kts 271°
2026-05-09 19:15 39.84137 -88.33359 39840 ft 403 kts 271°
2026-05-09 19:15 39.84165 -88.40656 39841 ft 404 kts 271°
2026-05-09 19:16 39.84191 -88.47950 39827 ft 404 kts 271°
2026-05-09 19:16 39.84212 -88.55257 39842 ft 404 kts 271°
2026-05-09 19:17 39.84230 -88.62566 39849 ft 404 kts 271°
2026-05-09 19:17 39.84245 -88.69881 39849 ft 404 kts 271°
2026-05-09 19:18 39.84255 -88.77198 39852 ft 404 kts 271°
2026-05-09 19:18 39.84260 -88.84467 39850 ft 405 kts 271°
2026-05-09 19:19 39.84261 -88.91830 39853 ft 404 kts 271°
2026-05-09 19:19 39.84258 -88.99102 39853 ft 405 kts 271°
2026-05-09 19:20 39.84249 -89.06432 39836 ft 405 kts 271°
2026-05-09 19:20 39.84236 -89.13763 39843 ft 405 kts 271°
2026-05-09 19:21 39.84219 -89.21091 39840 ft 405 kts 271°
2026-05-09 19:21 39.84197 -89.28419 39833 ft 405 kts 271°
2026-05-09 19:22 39.84170 -89.35743 39839 ft 405 kts 270°
2026-05-09 19:22 39.84139 -89.43060 39841 ft 405 kts 270°
2026-05-09 19:23 39.84103 -89.50396 39841 ft 405 kts 270°
2026-05-09 19:23 39.84063 -89.57721 39853 ft 405 kts 270°
2026-05-09 19:24 39.84019 -89.65047 39853 ft 405 kts 270°
2026-05-09 19:24 39.83628 -89.72357 39856 ft 406 kts 265°
2026-05-09 19:25 39.82965 -89.79645 39852 ft 406 kts 265°
2026-05-09 19:25 39.82311 -89.86941 39848 ft 406 kts 265°
2026-05-09 19:26 39.81659 -89.94235 39848 ft 406 kts 265°
2026-05-09 19:26 39.81008 -90.01477 39839 ft 406 kts 265°
2026-05-09 19:27 39.80348 -90.08764 39836 ft 406 kts 265°
2026-05-09 19:27 39.79684 -90.16046 39856 ft 406 kts 265°
2026-05-09 19:28 39.79015 -90.23336 39860 ft 406 kts 265°
2026-05-09 19:28 39.78341 -90.30628 39858 ft 406 kts 265°
2026-05-09 19:29 39.77661 -90.37928 39855 ft 407 kts 265°
2026-05-09 19:29 39.76978 -90.45212 39857 ft 407 kts 265°
2026-05-09 19:30 39.76289 -90.52513 39848 ft 407 kts 265°
2026-05-09 19:30 39.75595 -90.59818 39870 ft 407 kts 265°
2026-05-09 19:31 39.74896 -90.67125 39871 ft 407 kts 264°
2026-05-09 19:31 39.74192 -90.74432 39880 ft 408 kts 264°
2026-05-09 19:32 39.73484 -90.81733 39871 ft 408 kts 264°
2026-05-09 19:32 39.72771 -90.89037 39871 ft 407 kts 264°
2026-05-09 19:33 39.72054 -90.96337 40252 ft 407 kts 264°
2026-05-09 19:33 39.71334 -91.03638 40266 ft 408 kts 264°
2026-05-09 19:34 39.70610 -91.10888 40264 ft 408 kts 264°
2026-05-09 19:34 39.69873 -91.18188 40259 ft 408 kts 264°
2026-05-09 19:35 39.69131 -91.25483 40195 ft 408 kts 264°
2026-05-09 19:35 39.68759 -91.29130 39878 ft 408 kts 264°
2026-05-09 19:35 39.68385 -91.32779 39878 ft 408 kts 264°
2026-05-09 19:36 39.67637 -91.40074 39881 ft 408 kts 264°
2026-05-09 19:36 39.66882 -91.47377 39878 ft 408 kts 264°
2026-05-09 19:37 39.66128 -91.54672 39867 ft 408 kts 264°
2026-05-09 19:37 39.65371 -91.61977 39875 ft 408 kts 264°
2026-05-09 19:38 39.64608 -91.69285 39871 ft 409 kts 264°
2026-05-09 19:38 39.63841 -91.76592 39868 ft 409 kts 264°
2026-05-09 19:39 39.63068 -91.83904 39863 ft 409 kts 264°
2026-05-09 19:39 39.62291 -91.91218 39863 ft 409 kts 264°
2026-05-09 19:40 39.61507 -91.98546 39863 ft 409 kts 264°
2026-05-09 19:40 39.60720 -92.05855 39865 ft 409 kts 264°
2026-05-09 19:41 39.59928 -92.13168 39871 ft 410 kts 263°
2026-05-09 19:41 39.59133 -92.20469 39877 ft 409 kts 263°
2026-05-09 19:42 39.58332 -92.27782 39877 ft 409 kts 263°
2026-05-09 19:42 39.57527 -92.35084 39874 ft 409 kts 263°
2026-05-09 19:43 39.56723 -92.42336 39880 ft 409 kts 263°
2026-05-09 19:43 39.55904 -92.49680 39881 ft 409 kts 263°
2026-05-09 19:44 39.55090 -92.56938 39850 ft 410 kts 263°
2026-05-09 19:44 39.54265 -92.64241 39873 ft 410 kts 263°
2026-05-09 19:45 39.53436 -92.71552 39871 ft 410 kts 263°
2026-05-09 19:45 39.52601 -92.78866 39880 ft 411 kts 263°
2026-05-09 19:46 39.51759 -92.86207 39880 ft 412 kts 263°
2026-05-09 19:46 39.50911 -92.93549 39868 ft 413 kts 263°
2026-05-09 19:47 39.50057 -93.00909 39869 ft 413 kts 263°
2026-05-09 19:47 39.49197 -93.08270 39864 ft 414 kts 263°
2026-05-09 19:48 39.48333 -93.15634 39870 ft 414 kts 263°
2026-05-09 19:48 39.47465 -93.22999 39866 ft 414 kts 263°
2026-05-09 19:49 39.46589 -93.30364 39866 ft 414 kts 263°
2026-05-09 19:49 39.45704 -93.37725 39857 ft 414 kts 263°
2026-05-09 19:50 39.44815 -93.45082 39857 ft 414 kts 263°
2026-05-09 19:50 39.43922 -93.52425 39858 ft 414 kts 263°
2026-05-09 19:51 39.43025 -93.59773 39857 ft 413 kts 263°
2026-05-09 19:51 39.42130 -93.67068 39857 ft 413 kts 263°
2026-05-09 19:52 39.41225 -93.74405 39856 ft 413 kts 263°
2026-05-09 19:52 39.40311 -93.81779 39850 ft 413 kts 262°
2026-05-09 19:53 39.39403 -93.89059 39856 ft 413 kts 262°
2026-05-09 19:53 39.38484 -93.96389 39856 ft 413 kts 262°
2026-05-09 19:54 39.37561 -94.03717 39857 ft 413 kts 262°
2026-05-09 19:54 39.36632 -94.11045 39866 ft 413 kts 262°
2026-05-09 19:55 39.35699 -94.18376 39874 ft 413 kts 262°
2026-05-09 19:56 39.34289 -94.29378 39872 ft 414 kts 262°
2026-05-09 19:56 39.33342 -94.36716 39869 ft 414 kts 262°
2026-05-09 19:57 39.32390 -94.44060 39867 ft 414 kts 262°
2026-05-09 19:57 39.31434 -94.51396 39866 ft 414 kts 262°
2026-05-09 19:58 39.30475 -94.58725 39851 ft 414 kts 262°
2026-05-09 19:58 39.29510 -94.66066 39864 ft 415 kts 262°
2026-05-09 19:59 39.28538 -94.73412 39862 ft 416 kts 262°
2026-05-09 19:59 39.27659 -94.80791 39861 ft 416 kts 263°
2026-05-09 20:00 39.26983 -94.86944 39858 ft 417 kts 263°
2026-05-09 20:00 39.26165 -94.94337 39858 ft 417 kts 263°
2026-05-09 20:01 39.25329 -95.01745 39861 ft 417 kts 263°
2026-05-09 20:01 39.24344 -95.10354 39852 ft 418 kts 263°
2026-05-09 20:02 39.23629 -95.16562 39829 ft 418 kts 263°
2026-05-09 20:02 39.22769 -95.23972 39852 ft 418 kts 263°
2026-05-09 20:03 39.21477 -95.35051 39858 ft 419 kts 263°
2026-05-09 20:03 39.20604 -95.42486 39857 ft 420 kts 263°
2026-05-09 20:04 39.19725 -95.49922 39857 ft 420 kts 263°
2026-05-09 20:04 39.18839 -95.57377 39860 ft 421 kts 262°
2026-05-09 20:05 39.17948 -95.64835 39864 ft 421 kts 262°
2026-05-09 20:05 39.17053 -95.72286 39849 ft 421 kts 262°
2026-05-09 20:06 39.16152 -95.79736 39867 ft 421 kts 262°
2026-05-09 20:06 39.15247 -95.87186 39866 ft 421 kts 262°
2026-05-09 20:07 39.14336 -95.94641 39865 ft 421 kts 262°
2026-05-09 20:07 39.13421 -96.02094 39864 ft 421 kts 262°
2026-05-09 20:08 39.12038 -96.13274 39873 ft 422 kts 262°
2026-05-09 20:09 39.11110 -96.20731 39870 ft 422 kts 262°
2026-05-09 20:09 39.10177 -96.28183 39869 ft 422 kts 262°
2026-05-09 20:10 39.09238 -96.35642 39868 ft 422 kts 262°
2026-05-09 20:10 39.08296 -96.43091 39871 ft 422 kts 262°
2026-05-09 20:11 39.07349 -96.50540 39861 ft 422 kts 262°
2026-05-09 20:11 39.06402 -96.57944 39880 ft 422 kts 262°
2026-05-09 20:12 39.05445 -96.65398 39874 ft 423 kts 262°
2026-05-09 20:12 39.04481 -96.72858 39873 ft 423 kts 262°
2026-05-09 20:13 39.03512 -96.80323 39868 ft 423 kts 262°
2026-05-09 20:13 39.02539 -96.87784 39878 ft 423 kts 262°
2026-05-09 20:14 39.01558 -96.95252 39870 ft 424 kts 262°
2026-05-09 20:14 39.00564 -97.02716 39867 ft 424 kts 262°
2026-05-09 20:15 38.99567 -97.10179 39865 ft 424 kts 262°
2026-05-09 20:15 38.98566 -97.17639 39877 ft 424 kts 262°
2026-05-09 20:16 38.97559 -97.25103 39867 ft 424 kts 262°